Location: Newark
(13.8625°N, 100.5144°E)
Time: 06:47:54
(UTC+00:00)

XW-2F - Pass Details

Date: 30 July 2021
Orbit: 498 x 517 km, 97.5° (Epoch: 25 September)

Event Time Altitude Azimuth Distance (km) Brightness Sun altitude
Rises 22:20:03 0° 41° (NE) 2,624 ? -10.4°
Reaches altitude 10° 22:23:06 10° 69° (ENE) 1,740 ? -9.7°
Maximum altitude 22:24:56 13° 98° (E) 1,547 ? -9.3°
Drops below altitude 10° 22:26:46 10° 128° (SE) 1,742 ? -8.9°
Sets 22:29:49 0° 156° (SSE) 2,629 ? -8.2°
